Location: Les Barrières
(47.0667°N, 0.3667°E)
Time: 06:29:03
(UTC+00:00)

Daily predictions for brighter satellites

Satellite Brightness Start Highest point End
(mag) Time Altitude Azimuth Time Altitude Azimuth Time Altitude Azimuth
Cosmos 540 Rocket 3.6 17:34:07 10° NNW 17:39:17 81° WSW 17:44:24 10° SSE
Cosmos 2322 4.5 17:35:10 10° SSE 17:40:12 33° ESE 17:45:15 10° NE
Cosmos 1892 3.2 17:38:43 10° SSW 17:42:26 63° W 17:46:11 10° N
Radarsat Rocket 4.2 17:37:17 10° SSE 17:43:31 77° ENE 17:50:38 10° NNW
ATLAS 2AS CENTAUR R/B 4.0 17:37:37 10° NW 17:44:08 45° WSW 17:50:20 10° S
Nadezhda 2 Rocket 4.4 17:38:48 10° N 17:44:59 73° E 17:51:04 10° SSE
Cosmos 1340 2.8 17:43:48 10° N 17:47:23 49° ENE 17:50:57 10° SSE
Cosmos 1844 Rocket 3.5 17:42:32 10° NW 17:48:00 58° WSW 17:53:26 10° S
Cosmos 1461 4.3 17:49:32 10° WSW 17:53:36 39° NW 17:57:51 10° NNE
NOAA 6 4.2 17:49:03 10° SSE 17:54:13 84° WSW 17:59:27 10° NNW
CZ-4 R/B 2.9 17:52:02 10° ESE 17:54:42 17° ENE 17:57:21 10° NNE
CZ-4 R/B 4.5 17:52:14 10° SSE 17:56:16 56° ENE 18:00:19 10° N
RESURS DK-1 3.9 17:53:24 10° NW 17:57:17 41° WSW 18:01:10 10° S
SL-08 R/B 3.7 17:54:29 10° NNE 17:59:27 76° WNW 18:04:22 10° SSW
PAYLOAD B 4.5 17:54:37 10° SE 17:59:49 45° ENE 18:05:02 10° N
Cosmos 841 Rocket 3.6 17:56:07 10° NNW 18:01:25 87° WSW 18:06:39 10° SSE
Cosmos 1814 Rocket 4.3 17:56:27 10° NNW 18:01:39 48° ENE 18:06:49 10° SE
Cosmos 1869 3.3 18:01:59 10° N 18:05:56 90° E 18:09:54 10° S
Cosmos 2058 4.4 18:06:31 10° SE 18:09:09 16° E 18:11:47 10° NE
DMSP B5D2-2 4.3 18:04:16 10° NNE 18:09:33 80° WNW 18:14:48 10° SSW
PSLV R/B 4.2 18:06:19 10° SE 18:09:45 37° ENE 18:13:16 10° N
ATLAS 5 CENTAUR R/B 3.9 18:09:06 10° N 18:11:09 13° NNE 18:13:20 10° NE
Cosmos 1850 Rocket 4.0 18:07:34 10° SSW 18:12:45 89° ESE 18:17:58 10° NNE
Cosmos 1386 Rocket 4.4 18:06:52 10° N 18:12:52 64° ENE 18:18:54 10° SSE
Okean O Rocket 2.6 18:10:53 10° ESE 18:14:34 27° ENE 18:18:16 10° N
SKYMED 2 3.5 18:10:15 10° NNE 18:14:37 83° E 18:18:58 10° SSW
YAOGAN 1 2.9 18:10:45 10° SE 18:14:50 43° ENE 18:18:55 10° N
Cosmos 2219 Rocket 2.1 18:09:33 10° SSW 18:15:07 74° ESE 18:20:44 10° NNE
CZ-4B R/B 3.5 18:11:07 10° SE 18:16:12 44° ENE 18:21:24 10° N
Meteor 1-27 4.4 18:10:34 10° NNW 18:16:20 80° W 18:21:58 10° S
BlueWalker 3 2.1 18:12:53 10° WNW 18:16:45 59° NNE 18:19:40 16° E
Cosmos 2360 Rocket 3.0 18:13:43 10° SW 18:19:14 53° WNW 18:24:48 10° NNE
Cosmos 1356 3.7 18:17:27 10° N 18:20:19 35° ENE 18:23:09 10° SE
Cosmos 1606 2.7 18:17:49 10° N 18:21:35 53° ENE 18:25:18 10° SSE
CZ-4B DEB 4.2 18:16:23 10° SSE 18:21:50 86° ENE 18:27:21 10° NNW
Cosmos 2058 Rocket 3.3 18:17:52 10° NNW 18:22:17 74° W 18:26:43 10° S
Lacrosse 5 3.1 18:18:10 10° W 18:22:50 34° NNW 18:27:06 12° NE
Cosmos-2242 3.7 18:19:16 10° N 18:23:03 31° ENE 18:26:49 10° SE
Cosmos 1745 Rocket 3.9 18:17:16 10° N 18:23:31 72° E 18:29:39 10° SSE
Okean 1-7 Rocket 3.8 18:19:40 10° SSE 18:23:55 48° E 18:28:15 10° NNE
Cosmos 1741 Rocket 4.2 18:19:09 10° SSW 18:24:29 78° WNW 18:29:51 10° NNE
CZ-4B R/B 4.3 18:21:48 10° S 18:25:28 39° W 18:29:00 10° NNW
Okean-O 4.4 18:28:31 14° NE 18:28:31 14° NE 18:30:09 10° NNE
Cosmos 1633 4.3 18:27:01 10° SW 18:30:02 31° WNW 18:33:04 10° N
BREEZE-M DEB (TANK) 4.0 18:14:17 10° SW 18:30:23 67° SSE 18:33:28 21° ENE
SOICAL CYLINDER 4.5 18:27:36 10° SSW 18:30:23 52° ESE 18:31:37 27° NE
Cosmos 2237 Rocket 3.2 18:27:08 10° SSE 18:31:39 25° ESE 18:33:55 20° ENE
NOSS 8 (A) 4.3 18:28:03 10° SSW 18:31:55 73° SE 18:33:43 23° NE
Cosmos 1400 Rocket 4.4 18:30:43 10° SE 18:32:08 17° ESE 18:32:08 17° ESE
Cosmos 968 Rocket 3.6 18:29:30 10° S 18:34:35 56° ESE 18:39:44 10° NNE
MINOTAUR 4 R/B 4.3 18:31:48 12° NNE 18:34:44 40° E 18:37:58 10° S
Lacrosse 5 rocket 4.0 18:33:00 10° W 18:35:11 15° SW 18:37:23 10° SSW
Cosmos 2278 Rocket 2.4 18:30:32 10° NNW 18:36:02 48° NE 18:41:02 12° SE
Cosmos 2322 Rocket 3.9 18:31:12 10° WSW 18:36:06 30° NW 18:41:02 10° NNE
SJ-6B 4.0 18:36:32 24° ENE 18:36:32 24° ENE 18:39:40 10° NNE
Cosmos 1709 Rocket 3.9 18:35:03 10° N 18:41:10 63° ENE 18:47:11 10° SSE
Cosmos 1980 4.4 18:37:55 10° SSE 18:42:50 32° ESE 18:45:15 23° ENE
Cosmos 2208 Rocket 4.1 18:40:02 10° NNW 18:45:07 53° ENE 18:49:56 11° SE
CSL-04 Rocket 4.4 18:43:56 24° E 18:46:01 31° ENE 18:50:45 10° N
USA 81 3.9 18:41:10 10° S 18:46:24 70° E 18:51:39 10° N
Cosmos 2369 Rocket 4.1 18:44:25 10° NNE 18:46:26 12° NNE 18:46:47 12° NE
Iridium 2 3.4 18:43:50 10° N 18:47:28 70° E 18:51:05 10° S
Cosmos 1943 Rocket 3.2 18:42:51 10° N 18:47:35 26° NE 18:48:39 25° ENE
Cosmos 2333 Rocket 3.2 18:43:19 10° SW 18:48:46 48° NW 18:54:17 10° NNE
Cosmos 1570 Rocket 3.9 18:45:53 10° NNW 18:51:16 76° ENE 18:56:35 10° SSE
MOS 1-B 4.3 18:47:50 10° SSE 18:53:39 90° ENE 18:59:30 10° NNW
Cosmos 1602 Rocket 3.4 18:49:31 10° S 18:53:47 65° E 18:58:05 10° NNE
IGS 5A 3.7 18:52:10 28° SE 18:53:52 45° ENE 18:57:49 10° N
Cosmos 1356 Rocket 3.3 18:50:12 10° S 18:54:03 54° E 18:56:49 18° NNE
Cosmos 44 Rocket 4.4 18:50:21 10° WSW 18:54:48 40° NW 18:59:08 11° NNE
CZ-4C R/B 4.4 18:51:40 10° N 18:55:08 40° WNW 18:58:28 10° SW
Cosmos 883 Rocket 4.4 18:53:13 10° S 18:59:30 79° E 19:05:52 10° N
Spot 1 3.9 18:59:32 27° NE 19:01:32 55° ESE 19:05:34 10° S
COSMO-SKYMED 1 4.3 18:58:31 10° N 19:02:26 33° WNW 19:06:19 10° SW
COSMOS 2428 2.8 18:57:24 10° SSW 19:03:04 80° WNW 19:08:47 10° NNE
Cosmos 2184 Rocket 4.5 18:59:34 10° N 19:05:18 36° ENE 19:06:16 34° E
SL-4 R/B 3.0 19:03:21 10° WNW 19:06:39 35° SW 19:08:15 24° SSE
Gblst 52 Del rocket 4.4 19:02:30 10° WNW 19:07:59 56° N 19:09:52 37° ENE
NOSS 0 Rocket 3.9 19:02:34 10° SSW 19:08:44 66° ESE 19:13:26 18° NE
Cosmos 1758 Rocket 3.4 19:04:30 10° S 19:08:49 81° E 19:13:14 10° N
SJ 16-02 3.7 19:05:22 10° SSE 19:05:27 10° SSE 19:05:27 10° SSE
Cosmos 1812 Rocket 3.6 19:05:32 10° N 19:10:01 83° W 19:14:26 10° S
Landsat 7 3.9 19:15:20 49° ENE 19:15:20 49° ENE 19:19:47 10° N
USA 215 3.9 19:10:13 10° SSE 19:16:35 53° SW 19:23:00 10° WNW
Meteor 2-2 Rocket 4.1 19:21:10 10° N 19:26:53 86° E 19:32:40 10° S
CZ-4 R/B 2.2 19:25:18 10° S 19:29:15 49° W 19:33:10 10° NNW
Lacrosse 4 Rocket 3.0 19:29:35 10° NNW 19:31:44 24° N 19:31:44 24° N
Resurs 01 Rocket 4.0 19:40:04 13° N 19:40:04 13° N 19:40:35 10° N
Cosmos 2285 Rocket 4.1 19:35:08 10° NNW 19:41:01 51° NE 19:41:01 51° NE
Cosmos 1486 Rocket 4.2 19:37:22 10° SSW 19:41:27 54° S 19:41:27 54° S
Cosmos 2058 3.9 19:41:32 10° SSW 19:45:33 47° WNW 19:48:30 17° N
Okean O Rocket 3.1 19:46:42 10° SSW 19:50:44 36° W 19:54:51 10° NNW
BlueWalker 3 3.7 19:51:44 10° WNW 19:54:29 29° WSW 19:54:29 29° WSW
ATLAS 5 CENTAUR R/B 3.5 19:52:35 10° NNW 19:55:18 26° N 19:55:18 26° N
Cosmos 2219 Rocket 4.3 19:55:16 10° W 19:59:40 23° NW 20:04:06 10° N
Okean-O 4.4 20:06:02 26° NNW 20:06:02 26° NNW 20:08:02 10° NNW
Lacrosse 5 3.5 20:02:38 10° NW 20:06:18 26° N 20:06:18 26° N
Cosmos 2237 Rocket 2.7 20:09:42 10° SW 20:15:18 58° WNW 20:15:50 55° NW
Cosmos 2278 Rocket 3.8 20:15:01 10° NW 20:19:53 30° WSW 20:23:00 18° SSW
Cosmos 909 Rocket 4.1 20:12:52 10° NW 20:19:28 78° NW 20:19:28 78° NW
Cosmos 1943 Rocket 3.1 20:26:10 10° NNW 20:30:12 45° NW 20:30:12 45° NW
Cosmos 2369 Rocket 4.0 20:26:34 10° NNW 20:28:35 22° N 20:28:35 22° N
BREEZE-M DEB (TANK) 4.2 20:23:13 10° SW 20:39:13 75° SSW 20:39:13 75° SSW
